^^
Daily Summary for March 07, 2022 Units:  Both    English   Metric
Daily Weekly Monthly Yearly Custom
  High: Low: Average:
Temperature: 70.0 °F /  21.1 °C 32.0 °F /  0 °C 48.3 °F /  9.1 °C
Dew Point: 30.0 °F /  -1.1 °C 17.0 °F /  -8.3 °C 24.8 °F /  -4 °C
Humidity: 74% 14% 46%
Wind Speed: 25mph /  40.2km/h - 3.3mph /  5.3km/h
Wind Gust: 25mph /  40.2km/h - -
Wind- - SSE
Pressure: 30.4 in /  1029.3 hPa 30.3 in /  1026 hPa -
Precipitation: 0.000 in /  0 mm    
Historical Graphs
 
 
Tabular Data for March 07, 2022
Time Temperature Dew Point Pressure Wind Wind Speed Wind Gust Humidity Rainfall Rate (Hourly) solar
00:04 37.0 °F /  2.8 °C 30.0 °F /  -1.1 °C 30.4in /  1029.3hPa Calm     74% 0.000in /  0mm 0.00 W/m2
00:09 37.0 °F /  2.8 °C 29.0 °F /  -1.7 °C 30.4in /  1029.3hPa Calm     73% 0.000in /  0mm 0.00 W/m2
00:14 37.0 °F /  2.8 °C 29.0 °F /  -1.7 °C 30.4in /  1029.3hPa Calm     73% 0.000in /  0mm 0.00 W/m2
00:19 37.0 °F /  2.8 °C 29.0 °F /  -1.7 °C 30.4in /  1029.3hPa ESE 2mph /  3.2km/h 1mph /  1.6km/h 72% 0.000in /  0mm 0.00 W/m2
00:24 37.0 °F /  2.8 °C 29.0 °F /  -1.7 °C 30.4in /  1029.3hPa ESE 2mph /  3.2km/h 2mph /  3.2km/h 72% 0.000in /  0mm 0.00 W/m2
00:29 37.0 °F /  2.8 °C 28.0 °F /  -2.2 °C 30.4in /  1029.3hPa Calm     72% 0.000in /  0mm 0.00 W/m2
00:34 37.0 °F /  2.8 °C 28.0 °F /  -2.2 °C 30.4in /  1029.3hPa Calm     71% 0.000in /  0mm 0.00 W/m2
00:39 37.0 °F /  2.8 °C 28.0 °F /  -2.2 °C 30.4in /  1029.3hPa Calm     70% 0.000in /  0mm 0.00 W/m2
00:44 37.0 °F /  2.8 °C 28.0 °F /  -2.2 °C 30.4in /  1029.3hPa Calm     70% 0.000in /  0mm 0.00 W/m2
00:49 37.0 °F /  2.8 °C 27.0 °F /  -2.8 °C 30.4in /  1029.3hPa Calm     69% 0.000in /  0mm 0.00 W/m2
00:54 37.0 °F /  2.8 °C 28.0 °F /  -2.2 °C 30.4in /  1029.3hPa Calm     70% 0.000in /  0mm 0.00 W/m2
00:59 37.0 °F /  2.8 °C 28.0 °F /  -2.2 °C 30.4in /  1029.3hPa Calm     70% 0.000in /  0mm 0.00 W/m2
01:04 36.0 °F /  2.2 °C 28.0 °F /  -2.2 °C 30.4in /  1029.3hPa Calm     70% 0.000in /  0mm 0.00 W/m2
01:09 36.0 °F /  2.2 °C 27.0 °F /  -2.8 °C 30.4in /  1029.3hPa Calm     69% 0.000in /  0mm 0.00 W/m2
01:14 36.0 °F /  2.2 °C 27.0 °F /  -2.8 °C 30.4in /  1029.3hPa Calm     68% 0.000in /  0mm 0.00 W/m2
01:19 36.0 °F /  2.2 °C 27.0 °F /  -2.8 °C 30.4in /  1029.3hPa ESE 2mph /  3.2km/h   68% 0.000in /  0mm 0.00 W/m2
01:24 36.0 °F /  2.2 °C 26.0 °F /  -3.3 °C 30.4in /  1029.3hPa ESE 2mph /  3.2km/h 2mph /  3.2km/h 68% 0.000in /  0mm 0.00 W/m2
01:29 36.0 °F /  2.2 °C 26.0 °F /  -3.3 °C 30.4in /  1029.3hPa ESE 2mph /  3.2km/h 2mph /  3.2km/h 68% 0.000in /  0mm 0.00 W/m2
01:34 36.0 °F /  2.2 °C 26.0 °F /  -3.3 °C 30.4in /  1029.3hPa Calm   2mph /  3.2km/h 68% 0.000in /  0mm 0.00 W/m2
01:39 36.0 °F /  2.2 °C 26.0 °F /  -3.3 °C 30.4in /  1029.3hPa Calm     68% 0.000in /  0mm 0.00 W/m2
01:44 36.0 °F /  2.2 °C 26.0 °F /  -3.3 °C 30.4in /  1029.3hPa Calm     68% 0.000in /  0mm 0.00 W/m2
01:49 35.0 °F /  1.7 °C 26.0 °F /  -3.3 °C 30.4in /  1029.3hPa ESE 2mph /  3.2km/h 1mph /  1.6km/h 68% 0.000in /  0mm 0.00 W/m2
01:54 35.0 °F /  1.7 °C 26.0 °F /  -3.3 °C 30.4in /  1029.3hPa ESE 1mph /  1.6km/h 2mph /  3.2km/h 68% 0.000in /  0mm 0.00 W/m2
01:59 35.0 °F /  1.7 °C 26.0 °F /  -3.3 °C 30.4in /  1029.3hPa Calm     69% 0.000in /  0mm 0.00 W/m2
02:04 35.0 °F /  1.7 °C 26.0 °F /  -3.3 °C 30.4in /  1029.3hPa Calm     69% 0.000in /  0mm 0.00 W/m2
02:09 35.0 °F /  1.7 °C 26.0 °F /  -3.3 °C 30.4in /  1029.3hPa Calm     69% 0.000in /  0mm 0.00 W/m2
02:14 35.0 °F /  1.7 °C 26.0 °F /  -3.3 °C 30.4in /  1029.3hPa Calm     69% 0.000in /  0mm 0.00 W/m2
02:19 35.0 °F /  1.7 °C 26.0 °F /  -3.3 °C 30.4in /  1029.3hPa ESE 4mph /  6.4km/h 1mph /  1.6km/h 68% 0.000in /  0mm 0.00 W/m2
02:24 35.0 °F /  1.7 °C 26.0 °F /  -3.3 °C 30.4in /  1029.3hPa Calm   3mph /  4.8km/h 69% 0.000in /  0mm 0.00 W/m2
02:29 35.0 °F /  1.7 °C 26.0 °F /  -3.3 °C 30.4in /  1029.3hPa Calm     69% 0.000in /  0mm 0.00 W/m2
02:34 35.0 °F /  1.7 °C 26.0 °F /  -3.3 °C 30.4in /  1029.3hPa Calm     69% 0.000in /  0mm 0.00 W/m2
02:39 35.0 °F /  1.7 °C 25.0 °F /  -3.9 °C 30.4in /  1029.3hPa Calm     68% 0.000in /  0mm 0.00 W/m2
02:44 35.0 °F /  1.7 °C 25.0 °F /  -3.9 °C 30.4in /  1029.3hPa Calm     68% 0.000in /  0mm 0.00 W/m2
02:49 34.0 °F /  1.1 °C 25.0 °F /  -3.9 °C 30.4in /  1029.3hPa Calm     68% 0.000in /  0mm 0.00 W/m2
02:54 34.0 °F /  1.1 °C 25.0 °F /  -3.9 °C 30.4in /  1029.3hPa Calm     69% 0.000in /  0mm 0.00 W/m2
02:59 34.0 °F /  1.1 °C 25.0 °F /  -3.9 °C 30.4in /  1029.3hPa Calm     69% 0.000in /  0mm 0.00 W/m2
03:04 34.0 °F /  1.1 °C 25.0 °F /  -3.9 °C 30.4in /  1029.3hPa Calm     69% 0.000in /  0mm 0.00 W/m2
03:09 34.0 °F /  1.1 °C 25.0 °F /  -3.9 °C 30.4in /  1029.3hPa Calm     69% 0.000in /  0mm 0.00 W/m2
03:14 34.0 °F /  1.1 °C 25.0 °F /  -3.9 °C 30.4in /  1029.3hPa Calm     69% 0.000in /  0mm 0.00 W/m2
03:19 34.0 °F /  1.1 °C 25.0 °F /  -3.9 °C 30.4in /  1029.3hPa Calm     69% 0.000in /  0mm 0.00 W/m2
03:24 34.0 °F /  1.1 °C 25.0 °F /  -3.9 °C 30.4in /  1029.3hPa Calm     69% 0.000in /  0mm 0.00 W/m2
03:29 34.0 °F /  1.1 °C 25.0 °F /  -3.9 °C 30.4in /  1029.3hPa Calm     69% 0.000in /  0mm 0.00 W/m2
03:34 34.0 °F /  1.1 °C 25.0 °F /  -3.9 °C 30.4in /  1029.3hPa Calm     69% 0.000in /  0mm 0.00 W/m2
03:39 34.0 °F /  1.1 °C 25.0 °F /  -3.9 °C 30.4in /  1029.3hPa Calm     69% 0.000in /  0mm 0.00 W/m2
03:44 34.0 °F /  1.1 °C 25.0 °F /  -3.9 °C 30.4in /  1029.3hPa Calm     69% 0.000in /  0mm 0.00 W/m2
03:49 34.0 °F /  1.1 °C 25.0 °F /  -3.9 °C 30.4in /  1029.3hPa Calm     69% 0.000in /  0mm 0.00 W/m2
03:54 34.0 °F /  1.1 °C 24.0 °F /  -4.4 °C 30.4in /  1029.3hPa Calm     69% 0.000in /  0mm 0.00 W/m2
03:59 33.0 °F /  0.6 °C 25.0 °F /  -3.9 °C 30.4in /  1029.3hPa Calm     70% 0.000in /  0mm 0.00 W/m2
04:04 33.0 °F /  0.6 °C 25.0 °F /  -3.9 °C 30.4in /  1029.3hPa Calm     70% 0.000in /  0mm 0.00 W/m2
04:09 33.0 °F /  0.6 °C 25.0 °F /  -3.9 °C 30.4in /  1029.3hPa Calm     71% 0.000in /  0mm 0.00 W/m2
04:14 33.0 °F /  0.6 °C 25.0 °F /  -3.9 °C 30.4in /  1029.3hPa Calm     71% 0.000in /  0mm 0.00 W/m2
04:19 33.0 °F /  0.6 °C 25.0 °F /  -3.9 °C 30.4in /  1029.3hPa Calm     71% 0.000in /  0mm 0.00 W/m2
04:24 33.0 °F /  0.6 °C 25.0 °F /  -3.9 °C 30.4in /  1029.3hPa Calm     71% 0.000in /  0mm 0.00 W/m2
04:29 33.0 °F /  0.6 °C 25.0 °F /  -3.9 °C 30.4in /  1029.3hPa Calm     71% 0.000in /  0mm 0.00 W/m2
04:34 33.0 °F /  0.6 °C 25.0 °F /  -3.9 °C 30.4in /  1029.3hPa Calm     71% 0.000in /  0mm 0.00 W/m2
04:39 33.0 °F /  0.6 °C 25.0 °F /  -3.9 °C 30.4in /  1029.3hPa Calm     71% 0.000in /  0mm 0.00 W/m2
04:44 33.0 °F /  0.6 °C 25.0 °F /  -3.9 °C 30.4in /  1029.3hPa Calm     71% 0.000in /  0mm 0.00 W/m2
04:49 33.0 °F /  0.6 °C 25.0 °F /  -3.9 °C 30.4in /  1029.3hPa Calm     71% 0.000in /  0mm 0.00 W/m2
04:54 33.0 °F /  0.6 °C 25.0 °F /  -3.9 °C 30.4in /  1029.3hPa Calm     71% 0.000in /  0mm 0.00 W/m2
04:59 33.0 °F /  0.6 °C 25.0 °F /  -3.9 °C 30.4in /  1029.3hPa Calm     71% 0.000in /  0mm 0.00 W/m2
05:04 33.0 °F /  0.6 °C 25.0 °F /  -3.9 °C 30.4in /  1029.3hPa Calm     71% 0.000in /  0mm 0.00 W/m2
05:09 33.0 °F /  0.6 °C 25.0 °F /  -3.9 °C 30.4in /  1029.3hPa Calm     71% 0.000in /  0mm 0.00 W/m2
05:14 33.0 °F /  0.6 °C 25.0 °F /  -3.9 °C 30.4in /  1029.3hPa Calm     71% 0.000in /  0mm 0.00 W/m2
05:19 33.0 °F /  0.6 °C 25.0 °F /  -3.9 °C 30.4in /  1029.3hPa Calm     71% 0.000in /  0mm 0.00 W/m2
05:24 33.0 °F /  0.6 °C 24.0 °F /  -4.4 °C 30.4in /  1029.3hPa Calm     71% 0.000in /  0mm 0.00 W/m2
05:29 33.0 °F /  0.6 °C 24.0 °F /  -4.4 °C 30.4in /  1029.3hPa Calm     71% 0.000in /  0mm 0.00 W/m2
05:34 33.0 °F /  0.6 °C 24.0 °F /  -4.4 °C 30.4in /  1029.3hPa Calm     71% 0.000in /  0mm 0.00 W/m2
05:39 33.0 °F /  0.6 °C 24.0 °F /  -4.4 °C 30.4in /  1029.3hPa Calm     71% 0.000in /  0mm 0.00 W/m2
05:44 32.0 °F /  0 °C 24.0 °F /  -4.4 °C 30.4in /  1029.3hPa Calm     70% 0.000in /  0mm 0.00 W/m2
05:49 32.0 °F /  0 °C 24.0 °F /  -4.4 °C 30.4in /  1029.3hPa Calm     70% 0.000in /  0mm 0.00 W/m2
05:54 32.0 °F /  0 °C 24.0 °F /  -4.4 °C 30.4in /  1029.3hPa Calm     71% 0.000in /  0mm 0.00 W/m2
05:59 32.0 °F /  0 °C 24.0 °F /  -4.4 °C 30.4in /  1029.3hPa Calm     71% 0.000in /  0mm 0.00 W/m2
06:04 32.0 °F /  0 °C 24.0 °F /  -4.4 °C 30.4in /  1029.3hPa Calm     71% 0.000in /  0mm 0.00 W/m2
06:09 32.0 °F /  0 °C 24.0 °F /  -4.4 °C 30.4in /  1029.3hPa Calm     71% 0.000in /  0mm 0.00 W/m2
06:14 32.0 °F /  0 °C 24.0 °F /  -4.4 °C 30.4in /  1029.3hPa Calm     72% 0.000in /  0mm 0.00 W/m2
06:19 32.0 °F /  0 °C 24.0 °F /  -4.4 °C 30.4in /  1029.3hPa Calm     72% 0.000in /  0mm 0.00 W/m2
06:24 32.0 °F /  0 °C 24.0 °F /  -4.4 °C 30.4in /  1029.3hPa Calm     72% 0.000in /  0mm 0.00 W/m2
06:29 32.0 °F /  0 °C 24.0 °F /  -4.4 °C 30.4in /  1029.3hPa Calm     72% 0.000in /  0mm 0.00 W/m2
06:34 32.0 °F /  0 °C 24.0 °F /  -4.4 °C 30.4in /  1029.3hPa Calm     72% 0.000in /  0mm 5.00 W/m2
06:39 32.0 °F /  0 °C 24.0 °F /  -4.4 °C 30.4in /  1029.3hPa Calm     72% 0.000in /  0mm 7.00 W/m2
06:44 32.0 °F /  0 °C 24.0 °F /  -4.4 °C 30.4in /  1029.3hPa Calm     72% 0.000in /  0mm 7.00 W/m2
06:49 32.0 °F /  0 °C 24.0 °F /  -4.4 °C 30.4in /  1029.3hPa Calm     72% 0.000in /  0mm 9.00 W/m2
06:54 32.0 °F /  0 °C 24.0 °F /  -4.4 °C 30.4in /  1029.3hPa Calm     72% 0.000in /  0mm 11.00 W/m2
06:59 32.0 °F /  0 °C 24.0 °F /  -4.4 °C 30.4in /  1029.3hPa ESE 4mph /  6.4km/h 1mph /  1.6km/h 72% 0.000in /  0mm 12.00 W/m2
07:04 32.0 °F /  0 °C 24.0 °F /  -4.4 °C 30.4in /  1029.3hPa Calm   3mph /  4.8km/h 72% 0.000in /  0mm 14.00 W/m2
07:09 33.0 °F /  0.6 °C 25.0 °F /  -3.9 °C 30.4in /  1029.3hPa Calm     72% 0.000in /  0mm 16.00 W/m2
07:14 33.0 °F /  0.6 °C 25.0 °F /  -3.9 °C 30.4in /  1029.3hPa Calm     73% 0.000in /  0mm 18.00 W/m2
07:19 33.0 °F /  0.6 °C 25.0 °F /  -3.9 °C 30.4in /  1029.3hPa Calm     73% 0.000in /  0mm 19.00 W/m2
07:24 33.0 °F /  0.6 °C 25.0 °F /  -3.9 °C 30.4in /  1029.3hPa Calm     72% 0.000in /  0mm 23.00 W/m2
07:29 34.0 °F /  1.1 °C 25.0 °F /  -3.9 °C 30.4in /  1029.3hPa Calm     72% 0.000in /  0mm 23.00 W/m2
07:34 34.0 °F /  1.1 °C 25.0 °F /  -3.9 °C 30.4in /  1029.3hPa Calm     71% 0.000in /  0mm 28.00 W/m2
07:39 34.0 °F /  1.1 °C 25.0 °F /  -3.9 °C 30.4in /  1029.3hPa Calm     70% 0.000in /  0mm 28.00 W/m2
07:44 35.0 °F /  1.7 °C 26.0 °F /  -3.3 °C 30.4in /  1029.3hPa Calm     70% 0.000in /  0mm 26.00 W/m2
07:49 35.0 °F /  1.7 °C 26.0 °F /  -3.3 °C 30.4in /  1029.3hPa Calm     69% 0.000in /  0mm 28.00 W/m2
07:54 35.0 °F /  1.7 °C 26.0 °F /  -3.3 °C 30.4in /  1029.3hPa East 2mph /  3.2km/h   68% 0.000in /  0mm 30.00 W/m2
07:59 36.0 °F /  2.2 °C 26.0 °F /  -3.3 °C 30.4in /  1029.3hPa Calm   2mph /  3.2km/h 67% 0.000in /  0mm 32.00 W/m2
08:04 36.0 °F /  2.2 °C 26.0 °F /  -3.3 °C 30.4in /  1029.3hPa Calm     66% 0.000in /  0mm 33.00 W/m2
08:09 37.0 °F /  2.8 °C 26.0 °F /  -3.3 °C 30.4in /  1029.3hPa WNW 2mph /  3.2km/h 1mph /  1.6km/h 65% 0.000in /  0mm 374.00 W/m2
08:14 38.0 °F /  3.3 °C 26.0 °F /  -3.3 °C 30.4in /  1029.3hPa Calm   2mph /  3.2km/h 64% 0.000in /  0mm 394.00 W/m2
08:19 39.0 °F /  3.9 °C 26.0 °F /  -3.3 °C 30.4in /  1029.3hPa Calm     60% 0.000in /  0mm 406.00 W/m2
08:24 40.0 °F /  4.4 °C 26.0 °F /  -3.3 °C 30.4in /  1029.3hPa West 2mph /  3.2km/h   59% 0.000in /  0mm 427.00 W/m2
08:29 40.0 °F /  4.4 °C 25.0 °F /  -3.9 °C 30.4in /  1029.3hPa West 2mph /  3.2km/h 2mph /  3.2km/h 56% 0.000in /  0mm 439.00 W/m2
08:34 41.0 °F /  5 °C 25.0 °F /  -3.9 °C 30.4in /  1029.3hPa West 2mph /  3.2km/h 2mph /  3.2km/h 53% 0.000in /  0mm 461.00 W/m2
08:39 42.0 °F /  5.6 °C 24.0 °F /  -4.4 °C 30.4in /  1029.3hPa Calm     50% 0.000in /  0mm 473.00 W/m2
08:44 43.0 °F /  6.1 °C 24.0 °F /  -4.4 °C 30.4in /  1029.3hPa Calm     48% 0.000in /  0mm 490.00 W/m2
08:49 44.0 °F /  6.7 °C 25.0 °F /  -3.9 °C 30.4in /  1029.3hPa WSW 2mph /  3.2km/h   47% 0.000in /  0mm 504.00 W/m2
08:54 45.0 °F /  7.2 °C 25.0 °F /  -3.9 °C 30.4in /  1029.3hPa Calm   2mph /  3.2km/h 45% 0.000in /  0mm 517.00 W/m2
08:59 45.0 °F /  7.2 °C 25.0 °F /  -3.9 °C 30.4in /  1029.3hPa WSW 2mph /  3.2km/h 2mph /  3.2km/h 45% 0.000in /  0mm 536.00 W/m2
09:04 46.0 °F /  7.8 °C 25.0 °F /  -3.9 °C 30.4in /  1029.3hPa West 2mph /  3.2km/h 2mph /  3.2km/h 44% 0.000in /  0mm 545.00 W/m2
09:09 47.0 °F /  8.3 °C 26.0 °F /  -3.3 °C 30.4in /  1029.3hPa West 6mph /  9.7km/h 2mph /  3.2km/h 43% 0.000in /  0mm 564.00 W/m2
09:14 48.0 °F /  8.9 °C 25.0 °F /  -3.9 °C 30.4in /  1029.3hPa West 2mph /  3.2km/h 6mph /  9.7km/h 41% 0.000in /  0mm 575.00 W/m2
09:19 49.0 °F /  9.4 °C 24.0 °F /  -4.4 °C 30.4in /  1029.3hPa West 2mph /  3.2km/h 2mph /  3.2km/h 38% 0.000in /  0mm 589.00 W/m2
09:24 50.0 °F /  10 °C 24.0 °F /  -4.4 °C 30.4in /  1029.3hPa SW 2mph /  3.2km/h 2mph /  3.2km/h 37% 0.000in /  0mm 601.00 W/m2
09:29 51.0 °F /  10.6 °C 24.0 °F /  -4.4 °C 30.4in /  1029.3hPa West 2mph /  3.2km/h 2mph /  3.2km/h 36% 0.000in /  0mm 621.00 W/m2
09:34 51.0 °F /  10.6 °C 22.0 °F /  -5.6 °C 30.4in /  1029.3hPa West 2mph /  3.2km/h 2mph /  3.2km/h 33% 0.000in /  0mm 636.00 W/m2
09:39 52.0 °F /  11.1 °C 22.0 °F /  -5.6 °C 30.4in /  1029.3hPa NNE 2mph /  3.2km/h 2mph /  3.2km/h 31% 0.000in /  0mm 649.00 W/m2
09:44 53.0 °F /  11.7 °C 22.0 °F /  -5.6 °C 30.4in /  1029.3hPa ESE 2mph /  3.2km/h 2mph /  3.2km/h 29% 0.000in /  0mm 668.00 W/m2
09:49 54.0 °F /  12.2 °C 21.0 °F /  -6.1 °C 30.4in /  1029.3hPa Calm   2mph /  3.2km/h 28% 0.000in /  0mm 677.00 W/m2
09:54 54.0 °F /  12.2 °C 21.0 °F /  -6.1 °C 30.4in /  1029.3hPa East 2mph /  3.2km/h 2mph /  3.2km/h 28% 0.000in /  0mm 608.00 W/m2
09:59 55.0 °F /  12.8 °C 19.0 °F /  -7.2 °C 30.4in /  1029.3hPa East 7mph /  11.3km/h 7mph /  11.3km/h 25% 0.000in /  0mm 710.00 W/m2
10:04 55.0 °F /  12.8 °C 21.0 °F /  -6.1 °C 30.4in /  1029.3hPa East 7mph /  11.3km/h 7mph /  11.3km/h 26% 0.000in /  0mm 700.00 W/m2
10:09 55.0 °F /  12.8 °C 21.0 °F /  -6.1 °C 30.4in /  1029.3hPa ESE 2mph /  3.2km/h 7mph /  11.3km/h 26% 0.000in /  0mm 700.00 W/m2
10:14 56.0 °F /  13.3 °C 22.0 °F /  -5.6 °C 30.4in /  1029.3hPa East 7mph /  11.3km/h 4mph /  6.4km/h 27% 0.000in /  0mm 708.00 W/m2
10:19 56.0 °F /  13.3 °C 22.0 °F /  -5.6 °C 30.4in /  1029.3hPa SE 2mph /  3.2km/h 7mph /  11.3km/h 27% 0.000in /  0mm 717.00 W/m2
10:24 56.0 °F /  13.3 °C 22.0 °F /  -5.6 °C 30.4in /  1029.3hPa East 2mph /  3.2km/h 2mph /  3.2km/h 27% 0.000in /  0mm 726.00 W/m2
10:29 57.0 °F /  13.9 °C 21.0 °F /  -6.1 °C 30.4in /  1029.3hPa ENE 7mph /  11.3km/h 2mph /  3.2km/h 25% 0.000in /  0mm 735.00 W/m2
10:34 57.0 °F /  13.9 °C 23.0 °F /  -5 °C 30.4in /  1029.3hPa NE 2mph /  3.2km/h 7mph /  11.3km/h 27% 0.000in /  0mm 742.00 W/m2
10:39 57.0 °F /  13.9 °C 23.0 °F /  -5 °C 30.4in /  1029.3hPa East 9mph /  14.5km/h 6mph /  9.7km/h 27% 0.000in /  0mm 747.00 W/m2
10:44 58.0 °F /  14.4 °C 22.0 °F /  -5.6 °C 30.4in /  1029.3hPa ESE 6mph /  9.7km/h 9mph /  14.5km/h 25% 0.000in /  0mm 756.00 W/m2
10:49 58.0 °F /  14.4 °C 22.0 °F /  -5.6 °C 30.4in /  1029.3hPa East 7mph /  11.3km/h 7mph /  11.3km/h 25% 0.000in /  0mm 773.00 W/m2
10:54 58.0 °F /  14.4 °C 23.0 °F /  -5 °C 30.4in /  1029.3hPa East 4mph /  6.4km/h 7mph /  11.3km/h 26% 0.000in /  0mm 807.00 W/m2
10:59 59.0 °F /  15 °C 24.0 °F /  -4.4 °C 30.4in /  1029.3hPa ENE 6mph /  9.7km/h 3mph /  4.8km/h 26% 0.000in /  0mm 898.00 W/m2
11:04 59.0 °F /  15 °C 22.0 °F /  -5.6 °C 30.4in /  1029.3hPa East 9mph /  14.5km/h 6mph /  9.7km/h 24% 0.000in /  0mm 898.00 W/m2
11:09 59.0 °F /  15 °C 24.0 °F /  -4.4 °C 30.4in /  1029.3hPa ENE 6mph /  9.7km/h 9mph /  14.5km/h 26% 0.000in /  0mm 882.00 W/m2
11:14 60.0 °F /  15.6 °C 25.0 °F /  -3.9 °C 30.4in /  1029.3hPa South 9mph /  14.5km/h 6mph /  9.7km/h 27% 0.000in /  0mm 872.00 W/m2
11:19 60.0 °F /  15.6 °C 23.0 °F /  -5 °C 30.4in /  1029.3hPa East 7mph /  11.3km/h 9mph /  14.5km/h 24% 0.000in /  0mm 921.00 W/m2
11:24 60.0 °F /  15.6 °C 23.0 °F /  -5 °C 30.4in /  1029.3hPa ESE 9mph /  14.5km/h 9mph /  14.5km/h 24% 0.000in /  0mm 949.00 W/m2
11:29 60.0 °F /  15.6 °C 23.0 °F /  -5 °C 30.4in /  1029.3hPa ESE 7mph /  11.3km/h 9mph /  14.5km/h 24% 0.000in /  0mm 512.00 W/m2
11:34 60.0 °F /  15.6 °C 23.0 °F /  -5 °C 30.4in /  1029.3hPa East 2mph /  3.2km/h 7mph /  11.3km/h 24% 0.000in /  0mm 388.00 W/m2
11:39 61.0 °F /  16.1 °C 25.0 °F /  -3.9 °C 30.4in /  1029.3hPa SSE 4mph /  6.4km/h 2mph /  3.2km/h 25% 0.000in /  0mm 355.00 W/m2
11:44 61.0 °F /  16.1 °C 23.0 °F /  -5 °C 30.4in /  1029.3hPa SE 6mph /  9.7km/h 3mph /  4.8km/h 23% 0.000in /  0mm 830.00 W/m2
11:49 61.0 °F /  16.1 °C 22.0 °F /  -5.6 °C 30.4in /  1029.3hPa East 9mph /  14.5km/h 6mph /  9.7km/h 22% 0.000in /  0mm 842.00 W/m2
11:54 62.0 °F /  16.7 °C 22.0 °F /  -5.6 °C 30.4in /  1029.3hPa ESE 7mph /  11.3km/h 9mph /  14.5km/h 22% 0.000in /  0mm 485.00 W/m2
11:59 62.0 °F /  16.7 °C 22.0 °F /  -5.6 °C 30.4in /  1029.3hPa East 7mph /  11.3km/h 7mph /  11.3km/h 22% 0.000in /  0mm 468.00 W/m2
12:04 62.0 °F /  16.7 °C 21.0 °F /  -6.1 °C 30.4in /  1029.3hPa NE 7mph /  11.3km/h 7mph /  11.3km/h 21% 0.000in /  0mm 584.00 W/m2
12:09 62.0 °F /  16.7 °C 23.0 °F /  -5 °C 30.4in /  1029.3hPa SE 7mph /  11.3km/h 7mph /  11.3km/h 22% 0.000in /  0mm 689.00 W/m2
12:14 62.0 °F /  16.7 °C 23.0 °F /  -5 °C 30.4in /  1029.3hPa East 16mph /  25.7km/h 7mph /  11.3km/h 22% 0.000in /  0mm 689.00 W/m2
12:19 62.0 °F /  16.7 °C 24.0 °F /  -4.4 °C 30.4in /  1029.3hPa SE 13mph /  20.9km/h 16mph /  25.7km/h 23% 0.000in /  0mm 708.00 W/m2
12:24 62.0 °F /  16.7 °C 21.0 °F /  -6.1 °C 30.4in /  1029.3hPa ESE 18mph /  29km/h 13mph /  20.9km/h 20% 0.000in /  0mm 846.00 W/m2
12:29 62.0 °F /  16.7 °C 23.0 °F /  -5 °C 30.4in /  1029.3hPa SE 9mph /  14.5km/h 17mph /  27.4km/h 22% 0.000in /  0mm 629.00 W/m2
12:34 62.0 °F /  16.7 °C 24.0 °F /  -4.4 °C 30.4in /  1029.3hPa East 20mph /  32.2km/h 17mph /  27.4km/h 23% 0.000in /  0mm 821.00 W/m2
12:39 62.0 °F /  16.7 °C 26.0 °F /  -3.3 °C 30.4in /  1029.3hPa NE 2mph /  3.2km/h 20mph /  32.2km/h 25% 0.000in /  0mm 824.00 W/m2
12:44 62.0 °F /  16.7 °C 25.0 °F /  -3.9 °C 30.4in /  1029.3hPa SE 16mph /  25.7km/h 8mph /  12.9km/h 24% 0.000in /  0mm 816.00 W/m2
12:49 63.0 °F /  17.2 °C 26.0 °F /  -3.3 °C 30.4in /  1029.3hPa South 7mph /  11.3km/h 16mph /  25.7km/h 25% 0.000in /  0mm 810.00 W/m2
12:54 63.0 °F /  17.2 °C 25.0 °F /  -3.9 °C 30.4in /  1029.3hPa East 12mph /  19.3km/h 7mph /  11.3km/h 24% 0.000in /  0mm 802.00 W/m2
12:59 63.0 °F /  17.2 °C 23.0 °F /  -5 °C 30.4in /  1029.3hPa ESE 13mph /  20.9km/h 13mph /  20.9km/h 22% 0.000in /  0mm 772.00 W/m2
13:04 63.0 °F /  17.2 °C 25.0 °F /  -3.9 °C 30.4in /  1029.3hPa NNW 4mph /  6.4km/h 13mph /  20.9km/h 23% 0.000in /  0mm 768.00 W/m2
13:09 64.0 °F /  17.8 °C 25.0 °F /  -3.9 °C 30.4in /  1029.3hPa NE 7mph /  11.3km/h 5mph /  8km/h 23% 0.000in /  0mm 763.00 W/m2
13:14 64.0 °F /  17.8 °C 25.0 °F /  -3.9 °C 30.4in /  1029.3hPa NE 11mph /  17.7km/h 13mph /  20.9km/h 23% 0.000in /  0mm 751.00 W/m2
13:19 64.0 °F /  17.8 °C 28.0 °F /  -2.2 °C 30.4in /  1029.3hPa East 11mph /  17.7km/h 10mph /  16.1km/h 25% 0.000in /  0mm 740.00 W/m2
13:24 64.0 °F /  17.8 °C 28.0 °F /  -2.2 °C 30.4in /  1029.3hPa East 13mph /  20.9km/h 9mph /  14.5km/h 25% 0.000in /  0mm 731.00 W/m2
13:29 64.0 °F /  17.8 °C 27.0 °F /  -2.8 °C 30.4in /  1029.3hPa ESE 18mph /  29km/h 13mph /  20.9km/h 24% 0.000in /  0mm 724.00 W/m2
13:34 64.0 °F /  17.8 °C 26.0 °F /  -3.3 °C 30.4in /  1029.3hPa ENE 16mph /  25.7km/h 17mph /  27.4km/h 23% 0.000in /  0mm 714.00 W/m2
13:39 65.0 °F /  18.3 °C 25.0 °F /  -3.9 °C 30.4in /  1029.3hPa NE 13mph /  20.9km/h 16mph /  25.7km/h 22% 0.000in /  0mm 708.00 W/m2
13:44 65.0 °F /  18.3 °C 24.0 °F /  -4.4 °C 30.4in /  1029.3hPa NE 11mph /  17.7km/h 13mph /  20.9km/h 21% 0.000in /  0mm 694.00 W/m2
13:49 66.0 °F /  18.9 °C 23.0 °F /  -5 °C 30.4in /  1029.3hPa ESE 9mph /  14.5km/h 10mph /  16.1km/h 20% 0.000in /  0mm 689.00 W/m2
13:54 66.0 °F /  18.9 °C 23.0 °F /  -5 °C 30.4in /  1029.3hPa East 9mph /  14.5km/h 9mph /  14.5km/h 20% 0.000in /  0mm 682.00 W/m2
13:59 66.0 °F /  18.9 °C 21.0 °F /  -6.1 °C 30.4in /  1029.3hPa ESE 9mph /  14.5km/h 9mph /  14.5km/h 18% 0.000in /  0mm 675.00 W/m2
14:04 67.0 °F /  19.4 °C 19.0 °F /  -7.2 °C 30.4in /  1029.3hPa ENE 13mph /  20.9km/h 9mph /  14.5km/h 16% 0.000in /  0mm 664.00 W/m2
14:09 67.0 °F /  19.4 °C 21.0 °F /  -6.1 °C 30.4in /  1029.3hPa NNE 9mph /  14.5km/h 13mph /  20.9km/h 17% 0.000in /  0mm 652.00 W/m2
14:14 68.0 °F /  20 °C 21.0 °F /  -6.1 °C 30.4in /  1029.3hPa WNW 7mph /  11.3km/h 5mph /  8km/h 17% 0.000in /  0mm 643.00 W/m2
14:19 68.0 °F /  20 °C 20.0 °F /  -6.7 °C 30.4in /  1029.3hPa East 7mph /  11.3km/h 7mph /  11.3km/h 16% 0.000in /  0mm 631.00 W/m2
14:24 68.0 °F /  20 °C 18.0 °F /  -7.8 °C 30.3in /  1026hPa East 7mph /  11.3km/h 7mph /  11.3km/h 15% 0.000in /  0mm 622.00 W/m2
14:29 68.0 °F /  20 °C 17.0 °F /  -8.3 °C 30.3in /  1026hPa NNE 2mph /  3.2km/h 7mph /  11.3km/h 14% 0.000in /  0mm 608.00 W/m2
14:34 69.0 °F /  20.6 °C 20.0 °F /  -6.7 °C 30.3in /  1026hPa WNW 13mph /  20.9km/h 10mph /  16.1km/h 16% 0.000in /  0mm 596.00 W/m2
14:39 69.0 °F /  20.6 °C 18.0 °F /  -7.8 °C 30.3in /  1026hPa South 11mph /  17.7km/h 13mph /  20.9km/h 14% 0.000in /  0mm 580.00 W/m2
14:44 69.0 °F /  20.6 °C 21.0 °F /  -6.1 °C 30.3in /  1026hPa South 25mph /  40.2km/h 11mph /  17.7km/h 16% 0.000in /  0mm 568.00 W/m2
14:49 69.0 °F /  20.6 °C 21.0 °F /  -6.1 °C 30.3in /  1026hPa WSW 16mph /  25.7km/h 25mph /  40.2km/h 16% 0.000in /  0mm 555.00 W/m2
14:54 69.0 °F /  20.6 °C 20.0 °F /  -6.7 °C 30.3in /  1026hPa SW 18mph /  29km/h 16mph /  25.7km/h 15% 0.000in /  0mm 540.00 W/m2
14:59 69.0 °F /  20.6 °C 20.0 °F /  -6.7 °C 30.3in /  1026hPa West 13mph /  20.9km/h 17mph /  27.4km/h 15% 0.000in /  0mm 533.00 W/m2
15:04 69.0 °F /  20.6 °C 20.0 °F /  -6.7 °C 30.3in /  1026hPa NW 9mph /  14.5km/h 13mph /  20.9km/h 15% 0.000in /  0mm 517.00 W/m2
15:09 70.0 °F /  21.1 °C 23.0 °F /  -5 °C 30.3in /  1026hPa WNW 9mph /  14.5km/h 9mph /  14.5km/h 17% 0.000in /  0mm 504.00 W/m2
15:14 70.0 °F /  21.1 °C 21.0 °F /  -6.1 °C 30.3in /  1026hPa West 13mph /  20.9km/h 9mph /  14.5km/h 16% 0.000in /  0mm 489.00 W/m2
15:19 70.0 °F /  21.1 °C 20.0 °F /  -6.7 °C 30.3in /  1026hPa WNW 13mph /  20.9km/h 13mph /  20.9km/h 15% 0.000in /  0mm 475.00 W/m2
15:24 70.0 °F /  21.1 °C 22.0 °F /  -5.6 °C 30.3in /  1026hPa West 21mph /  33.8km/h 13mph /  20.9km/h 16% 0.000in /  0mm 457.00 W/m2
15:29 70.0 °F /  21.1 °C 20.0 °F /  -6.7 °C 30.3in /  1026hPa WNW 21mph /  33.8km/h 21mph /  33.8km/h 15% 0.000in /  0mm 443.00 W/m2
15:34 69.0 °F /  20.6 °C 20.0 °F /  -6.7 °C 30.3in /  1026hPa WSW 23mph /  37km/h 23mph /  37km/h 15% 0.000in /  0mm 431.00 W/m2
15:39 69.0 °F /  20.6 °C 20.0 °F /  -6.7 °C 30.3in /  1026hPa North 13mph /  20.9km/h 17mph /  27.4km/h 15% 0.000in /  0mm 415.00 W/m2
15:44 69.0 °F /  20.6 °C 20.0 °F /  -6.7 °C 30.3in /  1026hPa WNW 16mph /  25.7km/h 16mph /  25.7km/h 15% 0.000in /  0mm 401.00 W/m2
15:49 69.0 °F /  20.6 °C 22.0 °F /  -5.6 °C 30.3in /  1026hPa WNW 7mph /  11.3km/h 9mph /  14.5km/h 17% 0.000in /  0mm 385.00 W/m2
15:54 69.0 °F /  20.6 °C 22.0 °F /  -5.6 °C 30.3in /  1026hPa West 7mph /  11.3km/h 7mph /  11.3km/h 17% 0.000in /  0mm 367.00 W/m2
15:59 69.0 °F /  20.6 °C 21.0 °F /  -6.1 °C 30.3in /  1026hPa SW 11mph /  17.7km/h 7mph /  11.3km/h 16% 0.000in /  0mm 352.00 W/m2
16:04 69.0 °F /  20.6 °C 24.0 °F /  -4.4 °C 30.3in /  1026hPa WSW 7mph /  11.3km/h 10mph /  16.1km/h 18% 0.000in /  0mm 338.00 W/m2
16:09 69.0 °F /  20.6 °C 24.0 °F /  -4.4 °C 30.3in /  1026hPa South 9mph /  14.5km/h 3mph /  4.8km/h 18% 0.000in /  0mm 316.00 W/m2
16:14 69.0 °F /  20.6 °C 22.0 °F /  -5.6 °C 30.3in /  1026hPa SW 7mph /  11.3km/h 9mph /  14.5km/h 17% 0.000in /  0mm 290.00 W/m2
16:19 69.0 °F /  20.6 °C 22.0 °F /  -5.6 °C 30.3in /  1026hPa West 2mph /  3.2km/h 6mph /  9.7km/h 17% 0.000in /  0mm 290.00 W/m2
16:24 69.0 °F /  20.6 °C 23.0 °F /  -5 °C 30.3in /  1026hPa North 2mph /  3.2km/h 2mph /  3.2km/h 18% 0.000in /  0mm 271.00 W/m2
16:29 69.0 °F /  20.6 °C 22.0 °F /  -5.6 °C 30.3in /  1026hPa North 4mph /  6.4km/h 2mph /  3.2km/h 17% 0.000in /  0mm 158.00 W/m2
16:34 68.0 °F /  20 °C 21.0 °F /  -6.1 °C 30.3in /  1026hPa NE 2mph /  3.2km/h 3mph /  4.8km/h 17% 0.000in /  0mm 211.00 W/m2
16:39 68.0 °F /  20 °C 22.0 °F /  -5.6 °C 30.3in /  1026hPa NE 4mph /  6.4km/h 2mph /  3.2km/h 18% 0.000in /  0mm 95.00 W/m2
16:44 67.0 °F /  19.4 °C 22.0 °F /  -5.6 °C 30.3in /  1026hPa ENE 2mph /  3.2km/h 3mph /  4.8km/h 18% 0.000in /  0mm 79.00 W/m2
16:49 67.0 °F /  19.4 °C 21.0 °F /  -6.1 °C 30.3in /  1026hPa ENE 4mph /  6.4km/h 2mph /  3.2km/h 17% 0.000in /  0mm 86.00 W/m2
16:54 67.0 °F /  19.4 °C 23.0 °F /  -5 °C 30.3in /  1026hPa ENE 16mph /  25.7km/h 9mph /  14.5km/h 19% 0.000in /  0mm 123.00 W/m2
16:59 66.0 °F /  18.9 °C 24.0 °F /  -4.4 °C 30.3in /  1026hPa ENE 16mph /  25.7km/h 16mph /  25.7km/h 21% 0.000in /  0mm 123.00 W/m2
17:04 65.0 °F /  18.3 °C 25.0 °F /  -3.9 °C 30.4in /  1029.3hPa East 7mph /  11.3km/h 2mph /  3.2km/h 22% 0.000in /  0mm 97.00 W/m2
17:09 64.0 °F /  17.8 °C 25.0 °F /  -3.9 °C 30.4in /  1029.3hPa East 7mph /  11.3km/h 7mph /  11.3km/h 23% 0.000in /  0mm 100.00 W/m2
17:14 63.0 °F /  17.2 °C 25.0 °F /  -3.9 °C 30.4in /  1029.3hPa East 13mph /  20.9km/h 6mph /  9.7km/h 23% 0.000in /  0mm 62.00 W/m2
17:19 63.0 °F /  17.2 °C 26.0 °F /  -3.3 °C 30.4in /  1029.3hPa East 2mph /  3.2km/h 13mph /  20.9km/h 25% 0.000in /  0mm 40.00 W/m2
17:24 63.0 °F /  17.2 °C 26.0 °F /  -3.3 °C 30.4in /  1029.3hPa East 2mph /  3.2km/h 2mph /  3.2km/h 25% 0.000in /  0mm 21.00 W/m2
17:28 62.0 °F /  16.7 °C 26.0 °F /  -3.3 °C 30.4in /  1029.3hPa Calm   2mph /  3.2km/h 26% 0.000in /  0mm 18.00 W/m2
17:34 61.0 °F /  16.1 °C 28.0 °F /  -2.2 °C 30.4in /  1029.3hPa East 2mph /  3.2km/h   28% 0.000in /  0mm 14.00 W/m2
17:39 61.0 °F /  16.1 °C 26.0 °F /  -3.3 °C 30.4in /  1029.3hPa SE 4mph /  6.4km/h 2mph /  3.2km/h 27% 0.000in /  0mm 12.00 W/m2
17:44 60.0 °F /  15.6 °C 28.0 °F /  -2.2 °C 30.4in /  1029.3hPa NNE 2mph /  3.2km/h 3mph /  4.8km/h 29% 0.000in /  0mm 11.00 W/m2
17:49 60.0 °F /  15.6 °C 29.0 °F /  -1.7 °C 30.4in /  1029.3hPa NNE 2mph /  3.2km/h 2mph /  3.2km/h 31% 0.000in /  0mm 9.00 W/m2
17:54 59.0 °F /  15 °C 29.0 °F /  -1.7 °C 30.4in /  1029.3hPa Calm     32% 0.000in /  0mm 7.00 W/m2
17:59 59.0 °F /  15 °C 30.0 °F /  -1.1 °C 30.4in /  1029.3hPa Calm     34% 0.000in /  0mm 5.00 W/m2
18:04 58.0 °F /  14.4 °C 29.0 °F /  -1.7 °C 30.4in /  1029.3hPa Calm     33% 0.000in /  0mm 0.00 W/m2
18:09 58.0 °F /  14.4 °C 29.0 °F /  -1.7 °C 30.4in /  1029.3hPa Calm     33% 0.000in /  0mm 0.00 W/m2
18:14 57.0 °F /  13.9 °C 30.0 °F /  -1.1 °C 30.4in /  1029.3hPa Calm     35% 0.000in /  0mm 0.00 W/m2
18:19 57.0 °F /  13.9 °C 30.0 °F /  -1.1 °C 30.4in /  1029.3hPa Calm     36% 0.000in /  0mm 0.00 W/m2
18:24 56.0 °F /  13.3 °C 29.0 °F /  -1.7 °C 30.4in /  1029.3hPa Calm     36% 0.000in /  0mm 0.00 W/m2
18:29 55.0 °F /  12.8 °C 29.0 °F /  -1.7 °C 30.4in /  1029.3hPa Calm     36% 0.000in /  0mm 0.00 W/m2
18:34 55.0 °F /  12.8 °C 29.0 °F /  -1.7 °C 30.4in /  1029.3hPa Calm     37% 0.000in /  0mm 0.00 W/m2
18:39 54.0 °F /  12.2 °C 29.0 °F /  -1.7 °C 30.4in /  1029.3hPa Calm     38% 0.000in /  0mm 0.00 W/m2
18:44 53.0 °F /  11.7 °C 28.0 °F /  -2.2 °C 30.4in /  1029.3hPa Calm     39% 0.000in /  0mm 0.00 W/m2
18:49 53.0 °F /  11.7 °C 29.0 °F /  -1.7 °C 30.4in /  1029.3hPa Calm     40% 0.000in /  0mm 0.00 W/m2
18:54 52.0 °F /  11.1 °C 28.0 °F /  -2.2 °C 30.4in /  1029.3hPa Calm     40% 0.000in /  0mm 0.00 W/m2
18:59 51.0 °F /  10.6 °C 28.0 °F /  -2.2 °C 30.4in /  1029.3hPa Calm     41% 0.000in /  0mm 0.00 W/m2
19:04 51.0 °F /  10.6 °C 28.0 °F /  -2.2 °C 30.4in /  1029.3hPa Calm     42% 0.000in /  0mm 0.00 W/m2
19:09 50.0 °F /  10 °C 28.0 °F /  -2.2 °C 30.4in /  1029.3hPa Calm     43% 0.000in /  0mm 0.00 W/m2
19:14 50.0 °F /  10 °C 28.0 °F /  -2.2 °C 30.4in /  1029.3hPa Calm     44% 0.000in /  0mm 0.00 W/m2
19:19 49.0 °F /  9.4 °C 28.0 °F /  -2.2 °C 30.4in /  1029.3hPa Calm     44% 0.000in /  0mm 0.00 W/m2
19:24 49.0 °F /  9.4 °C 28.0 °F /  -2.2 °C 30.4in /  1029.3hPa Calm     45% 0.000in /  0mm 0.00 W/m2
19:29 48.0 °F /  8.9 °C 28.0 °F /  -2.2 °C 30.4in /  1029.3hPa Calm     45% 0.000in /  0mm 0.00 W/m2
19:34 48.0 °F /  8.9 °C 28.0 °F /  -2.2 °C 30.4in /  1029.3hPa Calm     47% 0.000in /  0mm 0.00 W/m2
19:39 48.0 °F /  8.9 °C 28.0 °F /  -2.2 °C 30.4in /  1029.3hPa Calm     47% 0.000in /  0mm 0.00 W/m2
19:44 47.0 °F /  8.3 °C 28.0 °F /  -2.2 °C 30.4in /  1029.3hPa Calm     48% 0.000in /  0mm 0.00 W/m2
19:49 47.0 °F /  8.3 °C 28.0 °F /  -2.2 °C 30.4in /  1029.3hPa Calm     47% 0.000in /  0mm 0.00 W/m2
19:54 47.0 °F /  8.3 °C 28.0 °F /  -2.2 °C 30.4in /  1029.3hPa Calm     49% 0.000in /  0mm 0.00 W/m2
19:59 46.0 °F /  7.8 °C 28.0 °F /  -2.2 °C 30.4in /  1029.3hPa Calm     49% 0.000in /  0mm 0.00 W/m2
20:04 46.0 °F /  7.8 °C 28.0 °F /  -2.2 °C 30.4in /  1029.3hPa Calm     50% 0.000in /  0mm 0.00 W/m2
20:09 46.0 °F /  7.8 °C 28.0 °F /  -2.2 °C 30.4in /  1029.3hPa Calm     50% 0.000in /  0mm 0.00 W/m2
20:14 46.0 °F /  7.8 °C 28.0 °F /  -2.2 °C 30.4in /  1029.3hPa Calm     50% 0.000in /  0mm 0.00 W/m2
20:19 45.0 °F /  7.2 °C 28.0 °F /  -2.2 °C 30.4in /  1029.3hPa Calm     50% 0.000in /  0mm 0.00 W/m2
20:24 45.0 °F /  7.2 °C 28.0 °F /  -2.2 °C 30.4in /  1029.3hPa Calm     50% 0.000in /  0mm 0.00 W/m2
20:29 45.0 °F /  7.2 °C 27.0 °F /  -2.8 °C 30.4in /  1029.3hPa Calm     50% 0.000in /  0mm 0.00 W/m2
20:34 45.0 °F /  7.2 °C 27.0 °F /  -2.8 °C 30.4in /  1029.3hPa Calm     50% 0.000in /  0mm 0.00 W/m2
20:39 44.0 °F /  6.7 °C 27.0 °F /  -2.8 °C 30.4in /  1029.3hPa Calm     50% 0.000in /  0mm 0.00 W/m2
20:44 44.0 °F /  6.7 °C 27.0 °F /  -2.8 °C 30.4in /  1029.3hPa Calm     50% 0.000in /  0mm 0.00 W/m2
20:49 44.0 °F /  6.7 °C 27.0 °F /  -2.8 °C 30.4in /  1029.3hPa Calm     50% 0.000in /  0mm 0.00 W/m2
20:54 44.0 °F /  6.7 °C 27.0 °F /  -2.8 °C 30.4in /  1029.3hPa Calm     51% 0.000in /  0mm 0.00 W/m2
20:59 44.0 °F /  6.7 °C 27.0 °F /  -2.8 °C 30.4in /  1029.3hPa Calm     51% 0.000in /  0mm 0.00 W/m2
21:04 44.0 °F /  6.7 °C 26.0 °F /  -3.3 °C 30.4in /  1029.3hPa Calm     49% 0.000in /  0mm 0.00 W/m2
21:09 44.0 °F /  6.7 °C 26.0 °F /  -3.3 °C 30.4in /  1029.3hPa Calm     49% 0.000in /  0mm 0.00 W/m2
21:14 44.0 °F /  6.7 °C 26.0 °F /  -3.3 °C 30.4in /  1029.3hPa Calm     49% 0.000in /  0mm 0.00 W/m2
21:19 44.0 °F /  6.7 °C 26.0 °F /  -3.3 °C 30.4in /  1029.3hPa Calm     49% 0.000in /  0mm 0.00 W/m2
21:24 44.0 °F /  6.7 °C 26.0 °F /  -3.3 °C 30.4in /  1029.3hPa SW 2mph /  3.2km/h   49% 0.000in /  0mm 0.00 W/m2
21:29 44.0 °F /  6.7 °C 26.0 °F /  -3.3 °C 30.4in /  1029.3hPa SW 2mph /  3.2km/h 2mph /  3.2km/h 49% 0.000in /  0mm 0.00 W/m2
21:34 44.0 °F /  6.7 °C 26.0 °F /  -3.3 °C 30.4in /  1029.3hPa NW 2mph /  3.2km/h 2mph /  3.2km/h 49% 0.000in /  0mm 0.00 W/m2
21:39 44.0 °F /  6.7 °C 26.0 °F /  -3.3 °C 30.4in /  1029.3hPa Calm   2mph /  3.2km/h 49% 0.000in /  0mm 0.00 W/m2
21:44 44.0 °F /  6.7 °C 26.0 °F /  -3.3 °C 30.4in /  1029.3hPa Calm     49% 0.000in /  0mm 0.00 W/m2
21:49 44.0 °F /  6.7 °C 26.0 °F /  -3.3 °C 30.4in /  1029.3hPa Calm     49% 0.000in /  0mm 0.00 W/m2
21:54 44.0 °F /  6.7 °C 26.0 °F /  -3.3 °C 30.4in /  1029.3hPa Calm     49% 0.000in /  0mm 0.00 W/m2
21:59 44.0 °F /  6.7 °C 26.0 °F /  -3.3 °C 30.4in /  1029.3hPa Calm     49% 0.000in /  0mm 0.00 W/m2
22:04 44.0 °F /  6.7 °C 26.0 °F /  -3.3 °C 30.4in /  1029.3hPa Calm     49% 0.000in /  0mm 0.00 W/m2
22:09 44.0 °F /  6.7 °C 26.0 °F /  -3.3 °C 30.4in /  1029.3hPa Calm     49% 0.000in /  0mm 0.00 W/m2
22:14 44.0 °F /  6.7 °C 26.0 °F /  -3.3 °C 30.4in /  1029.3hPa Calm     49% 0.000in /  0mm 0.00 W/m2
22:19 44.0 °F /  6.7 °C 26.0 °F /  -3.3 °C 30.4in /  1029.3hPa Calm     49% 0.000in /  0mm 0.00 W/m2
22:24 44.0 °F /  6.7 °C 25.0 °F /  -3.9 °C 30.4in /  1029.3hPa Calm     48% 0.000in /  0mm 0.00 W/m2
22:29 44.0 °F /  6.7 °C 25.0 °F /  -3.9 °C 30.4in /  1029.3hPa Calm     48% 0.000in /  0mm 0.00 W/m2
22:34 43.0 °F /  6.1 °C 25.0 °F /  -3.9 °C 30.4in /  1029.3hPa Calm     48% 0.000in /  0mm 0.00 W/m2
22:39 43.0 °F /  6.1 °C 25.0 °F /  -3.9 °C 30.4in /  1029.3hPa Calm     48% 0.000in /  0mm 0.00 W/m2
22:44 43.0 °F /  6.1 °C 24.0 °F /  -4.4 °C 30.4in /  1029.3hPa Calm     47% 0.000in /  0mm 0.00 W/m2
22:49 43.0 °F /  6.1 °C 25.0 °F /  -3.9 °C 30.4in /  1029.3hPa Calm     48% 0.000in /  0mm 0.00 W/m2
22:54 43.0 °F /  6.1 °C 24.0 °F /  -4.4 °C 30.4in /  1029.3hPa Calm     48% 0.000in /  0mm 0.00 W/m2
22:59 43.0 °F /  6.1 °C 24.0 °F /  -4.4 °C 30.4in /  1029.3hPa Calm     48% 0.000in /  0mm 0.00 W/m2
23:04 42.0 °F /  5.6 °C 24.0 °F /  -4.4 °C 30.4in /  1029.3hPa Calm     48% 0.000in /  0mm 0.00 W/m2
El Dorado Weather
Compliments of Weather Underground - 4 mb